DLH400A EDDF-KJFK

Flight info

Callsign DLH400A
Flight time 7h 58m
Altitude 36000
Route OBOKA2D OBOKA Z29 TORNU DCT VICOT DCT GALSO Q63 ERING L179 UGBET Q60 OKSAW DCT BIBPE DCT OKTAD DCT ELNIF DCT MEDOG DCT KRAGY DCT PEMOB DCT BAKUR DCT VENER/M082F380 NATC IBERG/N0473F380 N364A TUSKY DCT PLYMM PARCH3
Aircraft A346/H-SDE2E3FGHIJ3J4J5M1RWXY/LB1D1

Departure

Time 2026-05-08 12:39
Airport Frankfurt Main Airport (EDDF)

Arrival

Time 2026-05-08 20:38
Airport John F. Kennedy International Airport (KJFK)
Time Latitude Longitude Altitude Speed Heading
2026-05-08 11:30 50.04715 8.56281 354 ft 0 kts 339°
2026-05-08 12:16 50.04697 8.56292 362 ft 0 kts 339°
2026-05-08 12:16 50.04675 8.56307 361 ft 0 kts 323°
2026-05-08 12:16 50.04666 8.56329 363 ft 0 kts 283°
2026-05-08 12:17 50.04665 8.56334 362 ft 0 kts 281°
2026-05-08 12:17 50.04664 8.56344 361 ft 0 kts 281°
2026-05-08 12:18 50.04660 8.56382 360 ft 0 kts 280°
2026-05-08 12:18 50.04659 8.56407 363 ft 0 kts 261°
2026-05-08 12:19 50.04662 8.56429 360 ft 0 kts 260°
2026-05-08 12:19 50.04665 8.56449 362 ft 0 kts 247°
2026-05-08 12:31 50.04665 8.56448 354 ft 1 kts 249°
2026-05-08 12:31 50.04644 8.56343 358 ft 12 kts 251°
2026-05-08 12:32 50.04611 8.56207 360 ft 14 kts 249°
2026-05-08 12:32 50.04576 8.56059 358 ft 14 kts 250°
2026-05-08 12:32 50.04508 8.55950 360 ft 12 kts 201°
2026-05-08 12:32 50.04430 8.55915 360 ft 12 kts 191°
2026-05-08 12:33 50.04340 8.55930 358 ft 14 kts 164°
2026-05-08 12:33 50.04267 8.55994 361 ft 10 kts 133°
2026-05-08 12:33 50.04201 8.56052 363 ft 12 kts 160°
2026-05-08 12:33 50.04117 8.56091 361 ft 13 kts 184°
2026-05-08 12:34 50.04058 8.55988 361 ft 14 kts 248°
2026-05-08 12:34 50.04022 8.55837 362 ft 15 kts 250°
2026-05-08 12:34 50.03983 8.55674 359 ft 16 kts 249°
2026-05-08 12:34 50.03942 8.55505 356 ft 17 kts 249°
2026-05-08 12:35 50.03909 8.55366 356 ft 9 kts 249°
2026-05-08 12:35 50.03885 8.55265 358 ft 11 kts 249°
2026-05-08 12:35 50.03855 8.55144 361 ft 13 kts 249°
2026-05-08 12:35 50.03835 8.55059 360 ft 1 kts 250°
2026-05-08 12:36 50.03827 8.55023 359 ft 9 kts 250°
2026-05-08 12:36 50.03801 8.54917 361 ft 11 kts 250°
2026-05-08 12:36 50.03771 8.54794 361 ft 11 kts 248°
2026-05-08 12:36 50.03739 8.54728 358 ft 8 kts 211°
2026-05-08 12:37 50.03676 8.54722 358 ft 10 kts 166°
2026-05-08 12:37 50.03610 8.54761 360 ft 10 kts 149°
2026-05-08 12:37 50.03594 8.54855 362 ft 11 kts 73°
2026-05-08 12:37 50.03598 8.54874 361 ft 0 kts 68°
2026-05-08 12:38 50.03650 8.55073 361 ft 49 kts 68°
2026-05-08 12:39 50.03839 8.55874 361 ft 104 kts 69°
2026-05-08 12:39 50.04155 8.57191 361 ft 151 kts 69°
2026-05-08 12:39 50.04560 8.58862 575 ft 166 kts 69°
2026-05-08 12:39 50.04975 8.60523 1088 ft 164 kts 68°
2026-05-08 12:40 50.05393 8.62216 1522 ft 169 kts 69°
2026-05-08 12:40 50.05793 8.63962 1961 ft 172 kts 72°
2026-05-08 12:40 50.06168 8.65807 2309 ft 181 kts 72°
2026-05-08 12:40 50.06572 8.67757 2561 ft 193 kts 72°
2026-05-08 12:41 50.07039 8.69849 2835 ft 207 kts 64°
2026-05-08 12:41 50.08011 8.71592 3116 ft 222 kts 32°
2026-05-08 12:41 50.09455 8.72678 3418 ft 239 kts 23°
2026-05-08 12:41 50.11037 8.73710 3744 ft 255 kts 22°
2026-05-08 12:42 50.12709 8.74792 4241 ft 264 kts 22°
2026-05-08 12:42 50.14417 8.75916 4918 ft 267 kts 23°
2026-05-08 12:42 50.16130 8.77060 5596 ft 269 kts 23°
2026-05-08 12:42 50.17866 8.78231 6260 ft 273 kts 22°
2026-05-08 12:43 50.19630 8.79425 6905 ft 278 kts 22°
2026-05-08 12:43 50.21412 8.80633 7455 ft 281 kts 22°
2026-05-08 12:43 50.23216 8.81856 7899 ft 284 kts 22°
2026-05-08 12:43 50.25114 8.82604 8324 ft 285 kts 358°
2026-05-08 12:44 50.27024 8.81919 8743 ft 284 kts 329°
2026-05-08 12:44 50.28493 8.79911 9171 ft 282 kts 301°
2026-05-08 12:44 50.29419 8.77203 9620 ft 283 kts 294°
2026-05-08 12:44 50.29993 8.75362 9905 ft 284 kts 294°
2026-05-08 12:45 50.30867 8.72560 10322 ft 290 kts 294°
2026-05-08 12:45 50.31781 8.69657 10697 ft 305 kts 295°
2026-05-08 12:45 50.32751 8.66603 10995 ft 321 kts 295°
2026-05-08 12:45 50.33773 8.63400 11306 ft 337 kts 295°
2026-05-08 12:46 50.35212 8.58913 11789 ft 355 kts 295°
2026-05-08 12:46 50.36351 8.55363 12106 ft 371 kts 295°
2026-05-08 12:46 50.37142 8.52897 12399 ft 377 kts 295°
2026-05-08 12:46 50.38324 8.49212 13099 ft 380 kts 295°
2026-05-08 12:47 50.39514 8.45498 13864 ft 382 kts 295°
2026-05-08 12:47 50.40710 8.41759 14493 ft 385 kts 295°
2026-05-08 12:47 50.41912 8.37995 15107 ft 387 kts 295°
2026-05-08 12:47 50.43123 8.34201 15753 ft 390 kts 295°
2026-05-08 12:48 50.44340 8.30380 16392 ft 392 kts 295°
2026-05-08 12:48 50.45564 8.26530 17022 ft 395 kts 295°
2026-05-08 12:48 50.46795 8.22650 17641 ft 398 kts 295°
2026-05-08 12:48 50.48034 8.18739 18252 ft 401 kts 295°
2026-05-08 12:49 50.49261 8.14861 18784 ft 404 kts 295°
2026-05-08 12:49 50.50536 8.10830 19307 ft 407 kts 295°
2026-05-08 12:49 50.51783 8.06878 19799 ft 410 kts 295°
2026-05-08 12:49 50.53053 8.02845 20294 ft 413 kts 295°
2026-05-08 12:50 50.54330 7.98787 20795 ft 417 kts 295°
2026-05-08 12:50 50.55622 7.94669 21287 ft 420 kts 295°
2026-05-08 12:50 50.56917 7.90538 21764 ft 423 kts 295°
2026-05-08 12:50 50.58227 7.86352 22217 ft 427 kts 295°
2026-05-08 12:51 50.59544 7.82134 22696 ft 431 kts 294°
2026-05-08 12:51 50.62201 7.73600 23650 ft 437 kts 294°
2026-05-08 12:51 50.63544 7.69274 24052 ft 440 kts 294°
2026-05-08 12:52 50.64889 7.64936 24461 ft 442 kts 294°
2026-05-08 12:52 50.67600 7.56174 25109 ft 446 kts 294°
2026-05-08 12:52 50.68963 7.51759 25111 ft 446 kts 294°
2026-05-08 12:53 50.70318 7.47360 25127 ft 446 kts 294°
2026-05-08 12:53 50.71671 7.42959 25126 ft 446 kts 294°
2026-05-08 12:53 50.73025 7.38543 25124 ft 446 kts 294°
2026-05-08 12:53 50.74378 7.34123 25126 ft 447 kts 294°
2026-05-08 12:54 50.75771 7.29726 25125 ft 447 kts 295°
2026-05-08 12:54 50.77202 7.25356 25128 ft 447 kts 296°
2026-05-08 12:54 50.78635 7.20998 25129 ft 447 kts 295°
2026-05-08 12:54 50.80067 7.16628 25129 ft 447 kts 295°
2026-05-08 12:55 50.81496 7.12249 25133 ft 448 kts 295°
2026-05-08 12:55 50.82929 7.07836 25374 ft 453 kts 295°
2026-05-08 12:55 50.84366 7.03398 25882 ft 452 kts 295°
2026-05-08 12:55 50.85799 6.98960 26314 ft 454 kts 295°
2026-05-08 12:56 50.87241 6.94487 26654 ft 457 kts 295°
2026-05-08 12:56 50.88690 6.89982 27024 ft 460 kts 295°
2026-05-08 12:56 50.90146 6.85447 27397 ft 462 kts 295°
2026-05-08 12:56 50.91606 6.80895 27770 ft 465 kts 295°
2026-05-08 12:57 50.93073 6.76310 28219 ft 465 kts 295°
2026-05-08 12:57 50.94534 6.71742 28776 ft 463 kts 295°
2026-05-08 12:57 50.95985 6.67196 29362 ft 461 kts 295°
2026-05-08 12:57 50.97429 6.62664 29894 ft 459 kts 295°
2026-05-08 12:58 50.98874 6.58119 30379 ft 458 kts 295°
2026-05-08 12:58 51.00304 6.53615 30815 ft 458 kts 294°
2026-05-08 12:58 51.01737 6.49091 31223 ft 457 kts 294°
2026-05-08 12:58 51.03165 6.44577 31644 ft 456 kts 294°
2026-05-08 12:59 51.04585 6.40078 32079 ft 455 kts 294°
2026-05-08 12:59 51.06001 6.35585 32497 ft 454 kts 294°
2026-05-08 12:59 51.07421 6.31070 32920 ft 452 kts 294°
2026-05-08 12:59 51.08824 6.26597 33313 ft 451 kts 294°
2026-05-08 13:00 51.10226 6.22120 33708 ft 451 kts 294°
2026-05-08 13:00 51.11620 6.17646 34115 ft 449 kts 292°
2026-05-08 13:00 51.12897 6.13116 34412 ft 448 kts 290°
2026-05-08 13:00 51.14016 6.08490 34656 ft 447 kts 287°
2026-05-08 13:01 51.14977 6.03764 34881 ft 448 kts 284°
2026-05-08 13:01 51.15794 5.98982 35088 ft 449 kts 283°
2026-05-08 13:01 51.16583 5.94149 35298 ft 450 kts 282°
2026-05-08 13:01 51.17365 5.89310 35510 ft 451 kts 282°
2026-05-08 13:02 51.18150 5.84446 35716 ft 453 kts 282°
2026-05-08 13:02 51.18961 5.79587 35919 ft 454 kts 283°
2026-05-08 13:02 51.19812 5.74719 36094 ft 456 kts 284°
2026-05-08 13:02 51.20671 5.69849 36092 ft 456 kts 284°
2026-05-08 13:03 51.22587 5.60165 36096 ft 458 kts 288°
2026-05-08 13:03 51.24737 5.50598 36097 ft 458 kts 288°
2026-05-08 13:04 51.26873 5.40999 36100 ft 458 kts 288°
2026-05-08 13:04 51.28982 5.31391 36098 ft 458 kts 288°
2026-05-08 13:05 51.31074 5.21782 36097 ft 458 kts 288°
2026-05-08 13:05 51.33163 5.12132 36117 ft 458 kts 288°
2026-05-08 13:06 51.35240 5.02489 36101 ft 458 kts 288°
2026-05-08 13:06 51.37307 4.92847 36101 ft 458 kts 287°
2026-05-08 13:07 51.39366 4.83195 36102 ft 458 kts 287°
2026-05-08 13:07 51.41416 4.73531 36105 ft 458 kts 287°
2026-05-08 13:08 51.43447 4.63923 36104 ft 457 kts 287°
2026-05-08 13:08 51.45483 4.54240 36101 ft 457 kts 287°
2026-05-08 13:09 51.47511 4.44552 36103 ft 457 kts 287°
2026-05-08 13:09 51.49528 4.34866 36108 ft 457 kts 287°
2026-05-08 13:10 51.51539 4.25161 36104 ft 457 kts 287°
2026-05-08 13:10 51.53539 4.15464 36103 ft 457 kts 287°
2026-05-08 13:11 51.55531 4.05761 36100 ft 457 kts 287°
2026-05-08 13:11 51.57512 3.96061 36104 ft 457 kts 287°
2026-05-08 13:12 51.59488 3.86340 36100 ft 457 kts 287°
2026-05-08 13:12 51.61467 3.76549 36104 ft 456 kts 287°
2026-05-08 13:13 51.63426 3.66816 36105 ft 456 kts 287°
2026-05-08 13:13 51.65375 3.57091 36105 ft 456 kts 287°
2026-05-08 13:14 51.67317 3.47347 36111 ft 456 kts 287°
2026-05-08 13:14 51.69248 3.37605 36109 ft 456 kts 287°
2026-05-08 13:15 51.71027 3.27785 36114 ft 455 kts 282°
2026-05-08 13:15 51.72036 3.17717 36118 ft 454 kts 275°
2026-05-08 13:16 51.72194 3.07514 36116 ft 455 kts 267°
2026-05-08 13:16 51.71545 2.97357 36118 ft 455 kts 263°
2026-05-08 13:17 51.70669 2.87245 36114 ft 455 kts 263°
2026-05-08 13:17 51.69783 2.77127 36109 ft 455 kts 263°
2026-05-08 13:18 51.68894 2.67003 36116 ft 455 kts 263°
2026-05-08 13:18 51.67997 2.56893 36111 ft 455 kts 263°
2026-05-08 13:19 51.67092 2.46790 36107 ft 455 kts 263°
2026-05-08 13:19 51.66175 2.36697 36109 ft 454 kts 263°
2026-05-08 13:20 51.65254 2.26612 36110 ft 454 kts 263°
2026-05-08 13:20 51.64327 2.16539 36111 ft 454 kts 263°
2026-05-08 13:21 51.63391 2.06479 36111 ft 454 kts 263°
2026-05-08 13:21 51.62446 1.96420 36111 ft 454 kts 263°
2026-05-08 13:22 51.61495 1.86451 36111 ft 452 kts 263°
2026-05-08 13:22 51.60531 1.76369 36110 ft 452 kts 263°
2026-05-08 13:23 51.59673 1.66430 36109 ft 451 kts 266°
2026-05-08 13:23 51.59378 1.56293 36110 ft 449 kts 272°
2026-05-08 13:24 51.59683 1.46260 36111 ft 448 kts 275°
2026-05-08 13:24 51.60120 1.36339 36108 ft 446 kts 276°
2026-05-08 13:25 51.60546 1.26383 36103 ft 445 kts 275°
2026-05-08 13:25 51.60953 1.16423 36104 ft 445 kts 275°
2026-05-08 13:26 51.61350 1.06464 36105 ft 445 kts 275°
2026-05-08 13:26 51.61738 0.96511 36105 ft 445 kts 275°
2026-05-08 13:27 51.62059 0.88178 36099 ft 444 kts 275°
2026-05-08 13:27 51.62429 0.78257 36101 ft 443 kts 275°
2026-05-08 13:28 51.62791 0.68331 36100 ft 443 kts 275°
2026-05-08 13:28 51.63147 0.58398 36104 ft 443 kts 275°
2026-05-08 13:29 51.63493 0.48476 36099 ft 443 kts 275°
2026-05-08 13:29 51.63833 0.38574 36093 ft 441 kts 274°
2026-05-08 13:30 51.64159 0.28695 36094 ft 441 kts 274°
2026-05-08 13:30 51.64313 0.18804 36095 ft 442 kts 270°
2026-05-08 13:31 51.63846 0.08877 36096 ft 443 kts 264°
2026-05-08 13:31 51.62879 -0.00933 36115 ft 443 kts 264°
2026-05-08 13:32 51.62274 -0.10781 36118 ft 439 kts 269°
2026-05-08 13:32 51.62280 -0.20597 36128 ft 438 kts 274°
2026-05-08 13:33 51.62803 -0.30379 36126 ft 437 kts 276°
2026-05-08 13:33 51.63394 -0.40132 36082 ft 437 kts 276°
2026-05-08 13:34 51.63980 -0.49903 36076 ft 437 kts 276°
2026-05-08 13:34 51.64556 -0.59664 36075 ft 437 kts 276°
2026-05-08 13:35 51.65123 -0.69430 36077 ft 437 kts 276°
2026-05-08 13:35 51.65683 -0.79204 36073 ft 437 kts 276°
2026-05-08 13:36 51.66235 -0.89003 36073 ft 437 kts 276°
2026-05-08 13:36 51.66779 -0.98778 36069 ft 437 kts 275°
2026-05-08 13:37 51.67315 -1.08525 36070 ft 434 kts 275°
2026-05-08 13:37 51.67835 -1.18229 36069 ft 434 kts 275°
2026-05-08 13:38 51.68346 -1.27875 36071 ft 434 kts 275°
2026-05-08 13:38 51.68853 -1.37589 36067 ft 434 kts 275°
2026-05-08 13:39 51.69354 -1.47301 36069 ft 434 kts 275°
2026-05-08 13:39 51.69846 -1.56995 36070 ft 433 kts 274°
2026-05-08 13:40 51.70324 -1.66686 36073 ft 433 kts 275°
2026-05-08 13:40 51.70980 -1.76355 36071 ft 433 kts 276°
2026-05-08 13:41 51.71823 -1.85976 36062 ft 433 kts 280°
2026-05-08 13:41 51.73144 -1.95468 36056 ft 433 kts 282°
2026-05-08 13:42 51.74546 -2.04903 36057 ft 432 kts 282°
2026-05-08 13:42 51.75939 -2.14348 36052 ft 432 kts 282°
2026-05-08 13:43 51.77324 -2.23799 36051 ft 432 kts 282°
2026-05-08 13:43 51.78702 -2.33256 36053 ft 432 kts 282°
2026-05-08 13:44 51.80073 -2.42717 36047 ft 432 kts 282°
2026-05-08 13:44 51.81435 -2.52175 36048 ft 431 kts 281°
2026-05-08 13:45 51.82750 -2.61628 36041 ft 430 kts 281°
2026-05-08 13:45 51.84025 -2.71096 36040 ft 430 kts 281°
2026-05-08 13:46 51.85297 -2.80566 36039 ft 430 kts 281°
2026-05-08 13:46 51.86564 -2.90036 36092 ft 430 kts 281°
2026-05-08 13:47 51.87827 -2.99516 36088 ft 430 kts 280°
2026-05-08 13:47 51.89077 -3.08990 36078 ft 430 kts 280°
2026-05-08 13:48 51.90321 -3.18480 36061 ft 430 kts 280°
2026-05-08 13:48 51.91560 -3.27981 36056 ft 430 kts 280°
2026-05-08 13:49 51.92792 -3.37491 36038 ft 430 kts 280°
2026-05-08 13:49 51.94017 -3.46997 36032 ft 431 kts 279°
2026-05-08 13:50 51.95231 -3.56523 36029 ft 431 kts 279°
2026-05-08 13:50 51.96439 -3.66072 36030 ft 432 kts 279°
2026-05-08 13:51 51.97641 -3.75623 36033 ft 431 kts 279°
2026-05-08 13:51 51.98834 -3.85167 36046 ft 430 kts 279°
2026-05-08 13:52 52.00019 -3.94688 36039 ft 430 kts 279°
2026-05-08 13:52 52.01196 -4.04224 36034 ft 431 kts 278°
2026-05-08 13:53 52.02363 -4.13772 36043 ft 431 kts 278°
2026-05-08 13:53 52.03524 -4.23335 36043 ft 431 kts 278°
2026-05-08 13:54 52.04678 -4.32894 36042 ft 431 kts 278°
2026-05-08 13:54 52.05824 -4.42455 36052 ft 431 kts 278°
2026-05-08 13:55 52.06968 -4.52050 36043 ft 432 kts 278°
2026-05-08 13:56 52.08666 -4.66475 36043 ft 432 kts 278°
2026-05-08 13:56 52.09789 -4.76093 36052 ft 432 kts 277°
2026-05-08 13:57 52.10905 -4.85719 36051 ft 432 kts 277°
2026-05-08 13:57 52.12013 -4.95348 36057 ft 433 kts 277°
2026-05-08 13:58 52.13116 -5.05013 36062 ft 434 kts 277°
2026-05-08 13:58 52.14275 -5.14692 36056 ft 435 kts 279°
2026-05-08 13:59 52.15905 -5.24226 36058 ft 437 kts 283°
2026-05-08 13:59 52.17702 -5.33692 36075 ft 435 kts 283°
2026-05-08 14:00 52.19489 -5.43126 36064 ft 434 kts 283°
2026-05-08 14:00 52.21260 -5.52550 36066 ft 434 kts 283°
2026-05-08 14:01 52.23032 -5.61993 36067 ft 435 kts 284°
2026-05-08 14:01 52.25161 -5.71272 36069 ft 438 kts 289°
2026-05-08 14:02 52.27753 -5.80308 36068 ft 439 kts 291°
2026-05-08 14:02 52.30401 -5.89306 36069 ft 439 kts 291°
2026-05-08 14:03 52.33046 -5.98320 36072 ft 440 kts 291°
2026-05-08 14:03 52.35688 -6.07369 36067 ft 440 kts 291°
2026-05-08 14:04 52.38318 -6.16421 36072 ft 439 kts 290°
2026-05-08 14:04 52.40939 -6.25471 36067 ft 439 kts 290°
2026-05-08 14:05 52.43550 -6.34525 36065 ft 439 kts 290°
2026-05-08 14:05 52.46156 -6.43597 36066 ft 439 kts 290°
2026-05-08 14:06 52.48755 -6.52670 36074 ft 440 kts 290°
2026-05-08 14:06 52.51351 -6.61777 36065 ft 440 kts 290°
2026-05-08 14:07 52.53942 -6.70901 36061 ft 440 kts 290°
2026-05-08 14:07 52.56090 -6.78493 36065 ft 440 kts 290°
2026-05-08 14:08 52.58666 -6.87629 36060 ft 439 kts 290°
2026-05-08 14:08 52.61231 -6.96758 36056 ft 439 kts 290°
2026-05-08 14:09 52.63790 -7.05900 36069 ft 439 kts 289°
2026-05-08 14:09 52.66345 -7.15066 36057 ft 440 kts 289°
2026-05-08 14:10 52.68892 -7.24243 36059 ft 440 kts 289°
2026-05-08 14:10 52.71431 -7.33428 36058 ft 440 kts 289°
2026-05-08 14:11 52.73963 -7.42622 36066 ft 440 kts 289°
2026-05-08 14:11 52.76490 -7.51832 36067 ft 440 kts 289°
2026-05-08 14:12 52.79010 -7.61047 36073 ft 440 kts 289°
2026-05-08 14:12 52.81527 -7.70297 36074 ft 440 kts 289°
2026-05-08 14:13 52.84033 -7.79547 36074 ft 440 kts 289°
2026-05-08 14:13 52.86534 -7.88814 36078 ft 440 kts 289°
2026-05-08 14:14 52.89030 -7.98094 36073 ft 440 kts 289°
2026-05-08 14:14 52.91515 -8.07377 36075 ft 440 kts 288°
2026-05-08 14:15 52.93996 -8.16675 36083 ft 441 kts 288°
2026-05-08 14:15 52.96477 -8.26016 36081 ft 442 kts 288°
2026-05-08 14:16 52.98946 -8.35346 36081 ft 441 kts 288°
2026-05-08 14:16 53.01405 -8.44682 36078 ft 441 kts 288°
2026-05-08 14:17 53.03857 -8.54030 36082 ft 441 kts 288°
2026-05-08 14:17 53.06300 -8.63381 36079 ft 440 kts 288°
2026-05-08 14:18 53.08739 -8.72750 36085 ft 441 kts 287°
2026-05-08 14:18 53.11173 -8.82144 36082 ft 442 kts 287°
2026-05-08 14:19 53.13599 -8.91549 36088 ft 442 kts 287°
2026-05-08 14:19 53.16019 -9.00965 36083 ft 441 kts 287°
2026-05-08 14:20 53.18431 -9.10393 36085 ft 441 kts 287°
2026-05-08 14:20 53.20836 -9.19833 36092 ft 441 kts 287°
2026-05-08 14:21 53.23234 -9.29277 36101 ft 442 kts 287°
2026-05-08 14:21 53.25631 -9.38766 36095 ft 443 kts 287°
2026-05-08 14:22 53.28019 -9.48262 36104 ft 443 kts 287°
2026-05-08 14:22 53.30402 -9.57776 36099 ft 443 kts 287°
2026-05-08 14:23 53.32778 -9.67299 36104 ft 443 kts 287°
2026-05-08 14:23 53.35144 -9.76825 36114 ft 442 kts 286°
2026-05-08 14:24 53.37500 -9.86348 36120 ft 442 kts 286°
2026-05-08 14:24 53.39848 -9.95888 36122 ft 443 kts 286°
2026-05-08 14:25 53.42191 -10.05446 36114 ft 442 kts 286°
2026-05-08 14:25 53.44525 -10.15007 36124 ft 442 kts 286°
2026-05-08 14:26 53.46851 -10.24581 36129 ft 442 kts 286°
2026-05-08 14:26 53.49168 -10.34157 36127 ft 442 kts 286°
2026-05-08 14:27 53.51480 -10.43756 36148 ft 444 kts 285°
2026-05-08 14:27 53.53792 -10.53395 36166 ft 444 kts 285°
2026-05-08 14:28 53.56093 -10.63029 36142 ft 443 kts 285°
2026-05-08 14:28 53.58382 -10.72662 36143 ft 443 kts 285°
2026-05-08 14:29 53.60663 -10.82302 36146 ft 442 kts 285°
2026-05-08 14:29 53.62936 -10.91950 36148 ft 442 kts 285°
2026-05-08 14:30 53.65200 -11.01604 36152 ft 442 kts 285°
2026-05-08 14:30 53.67441 -11.11202 36159 ft 442 kts 285°
2026-05-08 14:31 53.69689 -11.20874 36156 ft 442 kts 285°
2026-05-08 14:31 53.71945 -11.30628 36180 ft 442 kts 285°
2026-05-08 14:32 53.75271 -11.45084 36166 ft 441 kts 285°
2026-05-08 14:32 53.77487 -11.54771 36165 ft 441 kts 285°
2026-05-08 14:33 53.79698 -11.64487 36173 ft 443 kts 285°
2026-05-08 14:33 53.81907 -11.74231 36171 ft 443 kts 284°
2026-05-08 14:34 53.84107 -11.83982 36170 ft 443 kts 284°
2026-05-08 14:34 53.86299 -11.93742 36178 ft 443 kts 284°
2026-05-08 14:35 53.88481 -12.03504 36178 ft 442 kts 284°
2026-05-08 14:35 53.90656 -12.13291 36187 ft 443 kts 284°
2026-05-08 14:36 53.92827 -12.23101 36186 ft 444 kts 284°
2026-05-08 14:36 53.94996 -12.32938 36185 ft 445 kts 284°
2026-05-08 14:37 53.97158 -12.42788 36183 ft 444 kts 284°
2026-05-08 14:37 53.99311 -12.52652 36186 ft 444 kts 284°
2026-05-08 14:38 54.01456 -12.62524 36192 ft 444 kts 284°
2026-05-08 14:38 54.03591 -12.72402 36191 ft 444 kts 284°
2026-05-08 14:39 54.05721 -12.82310 36193 ft 446 kts 284°
2026-05-08 14:39 54.07849 -12.92255 36197 ft 446 kts 284°
2026-05-08 14:40 54.09971 -13.02206 36196 ft 446 kts 284°
2026-05-08 14:40 54.12083 -13.12163 36198 ft 446 kts 284°
2026-05-08 14:41 54.14186 -13.22129 36199 ft 446 kts 284°
2026-05-08 14:41 54.16280 -13.32102 36206 ft 446 kts 284°
2026-05-08 14:42 54.18366 -13.42096 36205 ft 447 kts 284°
2026-05-08 14:42 54.20451 -13.52125 36213 ft 447 kts 284°
2026-05-08 14:43 54.22526 -13.62155 36218 ft 447 kts 284°
2026-05-08 14:43 54.24592 -13.72206 36224 ft 447 kts 284°
2026-05-08 14:44 54.26652 -13.82259 36221 ft 447 kts 284°
2026-05-08 14:44 54.28703 -13.92323 36222 ft 447 kts 284°
2026-05-08 14:45 54.30742 -14.02395 36226 ft 448 kts 284°
2026-05-08 14:45 54.32783 -14.12514 36225 ft 449 kts 284°
2026-05-08 14:46 54.34818 -14.22649 36232 ft 449 kts 284°
2026-05-08 14:46 54.36844 -14.32794 36231 ft 449 kts 284°
2026-05-08 14:47 54.38860 -14.42946 36230 ft 449 kts 284°
2026-05-08 14:47 54.40864 -14.53113 36247 ft 450 kts 284°
2026-05-08 14:48 54.42869 -14.63328 36240 ft 452 kts 285°
2026-05-08 14:48 54.44540 -14.71853 36237 ft 453 kts 285°
2026-05-08 14:49 54.46542 -14.82134 36240 ft 453 kts 285°
2026-05-08 14:49 54.48398 -14.92483 36241 ft 451 kts 281°
2026-05-08 14:50 54.49639 -15.03038 36248 ft 448 kts 275°
2026-05-08 14:50 54.50227 -15.13711 36247 ft 446 kts 269°
2026-05-08 14:51 54.50437 -15.24419 36248 ft 449 kts 269°
2026-05-08 14:51 54.50632 -15.35168 36249 ft 449 kts 269°
2026-05-08 14:52 54.50910 -15.51321 36253 ft 449 kts 269°
2026-05-08 14:53 54.51083 -15.62091 36251 ft 449 kts 269°
2026-05-08 14:53 54.51241 -15.72884 36257 ft 451 kts 270°
2026-05-08 14:54 54.51394 -15.83747 36252 ft 455 kts 270°
2026-05-08 14:54 54.51542 -15.94578 36262 ft 455 kts 270°
2026-05-08 14:55 54.51679 -16.05426 36257 ft 455 kts 270°
2026-05-08 14:55 54.51806 -16.16334 36266 ft 455 kts 270°
2026-05-08 14:56 54.51922 -16.27240 36262 ft 455 kts 270°
2026-05-08 14:56 54.52026 -16.38162 36263 ft 456 kts 270°
2026-05-08 14:57 54.52124 -16.49083 36271 ft 456 kts 270°
2026-05-08 14:57 54.52212 -16.60026 36267 ft 456 kts 270°
2026-05-08 14:58 54.52290 -16.70962 36264 ft 456 kts 270°
2026-05-08 14:58 54.52357 -16.81902 36272 ft 456 kts 270°
2026-05-08 14:59 54.52414 -16.92833 36277 ft 456 kts 269°
2026-05-08 14:59 54.52482 -17.09248 36281 ft 456 kts 269°
2026-05-08 15:00 54.52514 -17.20178 36280 ft 456 kts 269°
2026-05-08 15:00 54.52537 -17.31111 36277 ft 456 kts 269°
2026-05-08 15:01 54.52550 -17.42046 36291 ft 456 kts 269°
2026-05-08 15:01 54.52543 -17.53029 36285 ft 459 kts 270°
2026-05-08 15:02 54.52541 -17.64000 36285 ft 458 kts 270°
2026-05-08 15:02 54.52528 -17.75009 36287 ft 459 kts 270°
2026-05-08 15:03 54.52502 -17.86003 36287 ft 458 kts 270°
2026-05-08 15:03 54.52466 -17.96995 36295 ft 459 kts 270°
2026-05-08 15:04 54.52411 -18.08010 36284 ft 460 kts 270°
2026-05-08 15:04 54.52359 -18.19067 36298 ft 462 kts 270°
2026-05-08 15:05 54.52292 -18.30112 36297 ft 460 kts 270°
2026-05-08 15:05 54.52218 -18.41189 36304 ft 462 kts 270°
2026-05-08 15:06 54.52129 -18.52250 36301 ft 461 kts 270°
2026-05-08 15:06 54.52029 -18.63348 36302 ft 465 kts 271°
2026-05-08 15:07 54.51920 -18.74477 36301 ft 464 kts 270°
2026-05-08 15:07 54.51807 -18.85625 36307 ft 465 kts 271°
2026-05-08 15:08 54.51697 -18.94873 36307 ft 464 kts 270°
2026-05-08 15:08 54.51541 -19.07902 36310 ft 465 kts 270°
2026-05-08 15:09 54.51387 -19.19064 36305 ft 467 kts 270°
2026-05-08 15:09 54.51228 -19.30293 36316 ft 468 kts 270°
2026-05-08 15:10 54.51055 -19.41497 36314 ft 468 kts 270°
2026-05-08 15:10 54.50875 -19.52723 36316 ft 468 kts 270°
2026-05-08 15:11 54.50685 -19.63939 36319 ft 468 kts 270°
2026-05-08 15:11 54.50480 -19.75185 36318 ft 471 kts 270°
2026-05-08 15:12 54.50267 -19.86468 36325 ft 471 kts 270°
2026-05-08 15:12 54.50040 -19.97754 36323 ft 472 kts 270°
2026-05-08 15:13 54.49490 -20.09035 36329 ft 473 kts 266°
2026-05-08 15:13 54.48832 -20.20299 36331 ft 473 kts 266°
2026-05-08 15:14 54.48162 -20.31575 36324 ft 474 kts 267°
2026-05-08 15:14 54.47484 -20.42880 36328 ft 475 kts 266°
2026-05-08 15:15 54.46796 -20.54186 36333 ft 475 kts 266°
2026-05-08 15:15 54.46098 -20.65487 36330 ft 475 kts 266°
2026-05-08 15:16 54.45390 -20.76777 36314 ft 475 kts 266°
2026-05-08 15:16 54.44664 -20.88087 36336 ft 476 kts 267°
2026-05-08 15:17 54.43934 -20.99417 36343 ft 476 kts 267°
2026-05-08 15:17 54.43192 -21.10746 36340 ft 476 kts 267°
2026-05-08 15:18 54.42438 -21.22073 36337 ft 477 kts 267°
2026-05-08 15:18 54.41668 -21.33409 36328 ft 478 kts 268°
2026-05-08 15:19 54.40888 -21.44782 36342 ft 479 kts 268°
2026-05-08 15:19 54.40101 -21.56159 36346 ft 479 kts 267°
2026-05-08 15:20 54.39301 -21.67542 36352 ft 479 kts 267°
2026-05-08 15:20 54.38489 -21.78920 36352 ft 479 kts 267°
2026-05-08 15:21 54.37662 -21.90297 36339 ft 480 kts 268°
2026-05-08 15:21 54.36826 -22.01700 36354 ft 481 kts 268°
2026-05-08 15:22 54.35982 -22.13091 36356 ft 481 kts 268°
2026-05-08 15:22 54.35125 -22.24484 36360 ft 481 kts 267°
2026-05-08 15:23 54.34257 -22.35874 36362 ft 481 kts 267°
2026-05-08 15:23 54.33377 -22.47270 36362 ft 481 kts 267°
2026-05-08 15:24 54.32489 -22.58619 36367 ft 481 kts 267°
2026-05-08 15:24 54.31587 -22.70007 36368 ft 481 kts 267°
2026-05-08 15:25 54.30676 -22.81375 36368 ft 481 kts 267°
2026-05-08 15:25 54.29753 -22.92751 36368 ft 481 kts 267°
2026-05-08 15:26 54.28813 -23.04133 36366 ft 482 kts 267°
2026-05-08 15:26 54.27870 -23.15518 36377 ft 483 kts 267°
2026-05-08 15:27 54.26914 -23.26903 36378 ft 483 kts 267°
2026-05-08 15:27 54.25947 -23.38287 36381 ft 483 kts 267°
2026-05-08 15:28 54.24973 -23.49583 36353 ft 483 kts 268°
2026-05-08 15:28 54.23976 -23.60957 36375 ft 482 kts 268°
2026-05-08 15:29 54.22980 -23.72306 36383 ft 482 kts 268°
2026-05-08 15:29 54.21976 -23.83642 36384 ft 482 kts 268°
2026-05-08 15:30 54.20958 -23.94973 36391 ft 482 kts 268°
2026-05-08 15:30 54.19924 -24.06299 36375 ft 481 kts 268°
2026-05-08 15:31 54.18884 -24.17620 36400 ft 481 kts 268°
2026-05-08 15:31 54.17836 -24.28925 36391 ft 481 kts 268°
2026-05-08 15:32 54.16956 -24.38310 36404 ft 481 kts 268°
2026-05-08 15:32 54.15887 -24.49610 36400 ft 481 kts 268°
2026-05-08 15:33 54.14799 -24.60963 36388 ft 481 kts 268°
2026-05-08 15:33 54.13717 -24.72162 36401 ft 481 kts 268°
2026-05-08 15:34 54.12609 -24.83511 36407 ft 481 kts 268°
2026-05-08 15:34 54.11498 -24.94778 36408 ft 481 kts 268°
2026-05-08 15:35 54.10382 -25.05968 36408 ft 481 kts 268°
2026-05-08 15:35 54.09250 -25.17226 36405 ft 481 kts 267°
2026-05-08 15:36 54.08108 -25.28461 36413 ft 481 kts 267°
2026-05-08 15:36 54.06955 -25.39694 36413 ft 481 kts 267°
2026-05-08 15:37 54.05792 -25.50921 36416 ft 481 kts 267°
2026-05-08 15:37 54.04619 -25.62138 36383 ft 481 kts 267°
2026-05-08 15:38 54.03436 -25.73338 36419 ft 480 kts 267°
2026-05-08 15:38 54.02244 -25.84527 36414 ft 480 kts 267°
2026-05-08 15:39 54.01042 -25.95678 36423 ft 478 kts 267°
2026-05-08 15:39 53.99836 -26.06798 36423 ft 477 kts 267°
2026-05-08 15:40 53.98619 -26.17906 36418 ft 476 kts 267°
2026-05-08 15:40 53.97397 -26.28961 36430 ft 476 kts 267°
2026-05-08 15:41 53.96165 -26.40021 36435 ft 476 kts 267°
2026-05-08 15:41 53.94923 -26.51070 36435 ft 476 kts 266°
2026-05-08 15:42 53.93670 -26.62119 36441 ft 476 kts 266°
2026-05-08 15:42 53.92407 -26.73139 36428 ft 474 kts 266°
2026-05-08 15:43 53.91138 -26.84136 36443 ft 474 kts 266°
2026-05-08 15:43 53.89858 -26.95140 36445 ft 474 kts 266°
2026-05-08 15:44 53.88569 -27.06123 36449 ft 474 kts 266°
2026-05-08 15:44 53.87268 -27.17110 36448 ft 475 kts 266°
2026-05-08 15:45 53.85958 -27.28080 36443 ft 474 kts 266°
2026-05-08 15:45 53.84648 -27.38963 36450 ft 474 kts 266°
2026-05-08 15:46 53.83322 -27.49898 36454 ft 474 kts 266°
2026-05-08 15:46 53.81983 -27.60847 36457 ft 474 kts 266°
2026-05-08 15:47 53.80634 -27.71781 36460 ft 474 kts 266°
2026-05-08 15:47 53.79276 -27.82708 36465 ft 474 kts 266°
2026-05-08 15:48 53.77219 -27.99093 36465 ft 474 kts 266°
2026-05-08 15:49 53.75835 -28.10008 36445 ft 474 kts 266°
2026-05-08 15:49 53.74441 -28.20905 36465 ft 473 kts 265°
2026-05-08 15:50 53.73041 -28.31790 36469 ft 473 kts 265°
2026-05-08 15:50 53.71632 -28.42653 36473 ft 473 kts 265°
2026-05-08 15:51 53.70211 -28.53521 36481 ft 473 kts 265°
2026-05-08 15:51 53.68782 -28.64367 36483 ft 473 kts 265°
2026-05-08 15:52 53.67342 -28.75221 36448 ft 473 kts 265°
2026-05-08 15:52 53.65894 -28.86050 36477 ft 472 kts 265°
2026-05-08 15:53 53.64436 -28.96866 36479 ft 472 kts 265°
2026-05-08 15:53 53.62969 -29.07676 36482 ft 472 kts 265°
2026-05-08 15:54 53.61492 -29.18480 36482 ft 472 kts 265°
2026-05-08 15:54 53.60008 -29.29260 36469 ft 471 kts 264°
2026-05-08 15:55 53.58517 -29.40003 36495 ft 470 kts 264°
2026-05-08 15:55 53.56264 -29.56101 36491 ft 470 kts 264°
2026-05-08 15:56 53.54750 -29.66827 36490 ft 471 kts 264°
2026-05-08 15:56 53.53228 -29.77536 36463 ft 470 kts 264°
2026-05-08 15:57 53.51695 -29.88237 36487 ft 470 kts 264°
2026-05-08 15:57 53.50154 -29.98914 36493 ft 470 kts 264°
2026-05-08 15:58 53.48567 -30.09571 36494 ft 470 kts 263°
2026-05-08 15:58 53.46945 -30.20233 36495 ft 470 kts 263°
2026-05-08 15:59 53.45317 -30.30877 36472 ft 468 kts 263°
2026-05-08 15:59 53.43690 -30.41452 36495 ft 467 kts 263°
2026-05-08 16:00 53.42057 -30.52010 36503 ft 467 kts 263°
2026-05-08 16:00 53.40416 -30.62564 36503 ft 467 kts 263°
2026-05-08 16:01 53.38765 -30.73106 36503 ft 467 kts 263°
2026-05-08 16:01 53.37100 -30.83648 36492 ft 467 kts 263°
2026-05-08 16:02 53.35431 -30.94177 36503 ft 467 kts 263°
2026-05-08 16:02 53.33751 -31.04708 36504 ft 468 kts 263°
2026-05-08 16:03 53.32061 -31.15234 36505 ft 468 kts 263°
2026-05-08 16:03 53.30362 -31.25742 36470 ft 468 kts 263°
2026-05-08 16:04 53.28650 -31.36250 36502 ft 467 kts 263°
2026-05-08 16:04 53.26935 -31.46739 36508 ft 467 kts 263°
2026-05-08 16:05 53.25210 -31.57219 36508 ft 467 kts 263°
2026-05-08 16:05 53.23487 -31.67622 36509 ft 467 kts 263°
2026-05-08 16:06 53.21743 -31.78083 36482 ft 467 kts 263°
2026-05-08 16:06 53.19992 -31.88513 36503 ft 465 kts 263°
2026-05-08 16:07 53.18239 -31.98914 36507 ft 465 kts 262°
2026-05-08 16:07 53.16475 -32.09311 36505 ft 465 kts 262°
2026-05-08 16:08 53.14700 -32.19710 36505 ft 465 kts 262°
2026-05-08 16:08 53.12918 -32.30086 36487 ft 465 kts 262°
2026-05-08 16:09 53.11433 -32.38685 36501 ft 465 kts 262°
2026-05-08 16:09 53.09333 -32.50776 36499 ft 465 kts 262°
2026-05-08 16:10 53.07527 -32.61108 36501 ft 464 kts 262°
2026-05-08 16:10 53.05716 -32.71410 36505 ft 464 kts 262°
2026-05-08 16:11 53.03896 -32.81703 36506 ft 464 kts 262°
2026-05-08 16:11 53.02067 -32.91994 36506 ft 464 kts 262°
2026-05-08 16:12 53.00228 -33.02277 36505 ft 464 kts 262°
2026-05-08 16:12 52.98380 -33.12553 36502 ft 464 kts 262°
2026-05-08 16:13 52.96524 -33.22812 36475 ft 464 kts 262°
2026-05-08 16:13 52.94657 -33.33060 36506 ft 463 kts 262°
2026-05-08 16:14 52.92786 -33.43299 36494 ft 463 kts 262°
2026-05-08 16:14 52.91226 -33.51790 36496 ft 463 kts 262°
2026-05-08 16:15 52.89339 -33.62008 36498 ft 463 kts 261°
2026-05-08 16:15 52.87439 -33.72230 36466 ft 463 kts 262°
2026-05-08 16:16 52.85528 -33.82442 36482 ft 464 kts 262°
2026-05-08 16:16 52.83611 -33.92663 36487 ft 464 kts 262°
2026-05-08 16:17 52.81685 -34.02868 36485 ft 464 kts 262°
2026-05-08 16:17 52.79749 -34.13068 36488 ft 465 kts 262°
2026-05-08 16:18 52.77799 -34.23268 36466 ft 466 kts 262°
2026-05-08 16:18 52.75835 -34.33499 36483 ft 467 kts 262°
2026-05-08 16:19 52.73864 -34.43725 36483 ft 467 kts 262°
2026-05-08 16:19 52.71883 -34.53939 36484 ft 467 kts 262°
2026-05-08 16:20 52.69892 -34.64153 36484 ft 467 kts 262°
2026-05-08 16:20 52.67885 -34.74382 36464 ft 469 kts 262°
2026-05-08 16:21 52.65868 -34.84617 36481 ft 469 kts 262°
2026-05-08 16:21 52.63840 -34.94852 36481 ft 469 kts 262°
2026-05-08 16:22 52.61803 -35.05081 36484 ft 469 kts 262°
2026-05-08 16:22 52.59772 -35.15225 36448 ft 469 kts 261°
2026-05-08 16:23 52.57719 -35.25423 36483 ft 469 kts 261°
2026-05-08 16:23 52.55659 -35.35601 36476 ft 469 kts 261°
2026-05-08 16:24 52.53590 -35.45772 36480 ft 469 kts 261°
2026-05-08 16:24 52.51513 -35.55933 36480 ft 469 kts 261°
2026-05-08 16:25 52.49429 -35.66086 36461 ft 467 kts 261°
2026-05-08 16:25 52.47342 -35.76186 36469 ft 467 kts 261°
2026-05-08 16:26 52.45245 -35.86281 36471 ft 467 kts 260°
2026-05-08 16:26 52.43143 -35.96357 36468 ft 467 kts 260°
2026-05-08 16:27 52.41029 -36.06440 36467 ft 467 kts 260°
2026-05-08 16:27 52.38914 -36.16487 36449 ft 466 kts 260°
2026-05-08 16:28 52.36786 -36.26528 36453 ft 466 kts 260°
2026-05-08 16:28 52.34652 -36.36551 36456 ft 466 kts 260°
2026-05-08 16:29 52.32510 -36.46566 36447 ft 466 kts 259°
2026-05-08 16:29 52.30358 -36.56581 36427 ft 466 kts 259°
2026-05-08 16:30 52.28203 -36.66563 36451 ft 466 kts 259°
2026-05-08 16:30 52.26035 -36.76545 36451 ft 466 kts 259°
2026-05-08 16:31 52.23867 -36.86500 36443 ft 465 kts 258°
2026-05-08 16:31 52.21685 -36.96447 36446 ft 465 kts 258°
2026-05-08 16:32 52.19499 -37.06375 36421 ft 465 kts 258°
2026-05-08 16:32 52.17303 -37.16294 36439 ft 465 kts 258°
2026-05-08 16:33 52.15099 -37.26203 36437 ft 465 kts 258°
2026-05-08 16:33 52.12886 -37.36110 36438 ft 465 kts 258°
2026-05-08 16:34 52.10666 -37.45998 36435 ft 465 kts 258°
2026-05-08 16:34 52.08437 -37.55881 36430 ft 465 kts 258°
2026-05-08 16:35 52.06199 -37.65762 36430 ft 465 kts 258°
2026-05-08 16:35 52.03953 -37.75626 36424 ft 465 kts 258°
2026-05-08 16:36 52.01697 -37.85491 36423 ft 465 kts 258°
2026-05-08 16:36 51.99437 -37.95340 36409 ft 464 kts 257°
2026-05-08 16:37 51.97173 -38.05149 36411 ft 464 kts 257°
2026-05-08 16:37 51.94895 -38.14966 36413 ft 464 kts 257°
2026-05-08 16:38 51.92628 -38.24693 36413 ft 464 kts 257°
2026-05-08 16:38 51.90339 -38.34473 36408 ft 464 kts 257°
2026-05-08 16:39 51.88045 -38.44249 36404 ft 463 kts 256°
2026-05-08 16:39 51.85742 -38.53993 36399 ft 463 kts 256°
2026-05-08 16:40 51.83430 -38.63728 36396 ft 463 kts 256°
2026-05-08 16:40 51.81110 -38.73463 36398 ft 463 kts 256°
2026-05-08 16:41 51.78784 -38.83189 36353 ft 463 kts 256°
2026-05-08 16:42 51.75280 -38.97742 36381 ft 464 kts 255°
2026-05-08 16:42 51.72922 -39.07467 36378 ft 464 kts 255°
2026-05-08 16:43 51.70560 -39.17181 36372 ft 464 kts 255°
2026-05-08 16:43 51.68190 -39.26883 36346 ft 464 kts 255°
2026-05-08 16:44 51.65811 -39.36582 36363 ft 465 kts 255°
2026-05-08 16:44 51.63426 -39.46265 36373 ft 465 kts 255°
2026-05-08 16:45 51.61033 -39.55932 36362 ft 465 kts 255°
2026-05-08 16:45 51.58632 -39.65595 36363 ft 465 kts 255°
2026-05-08 16:46 51.56224 -39.75252 36345 ft 464 kts 255°
2026-05-08 16:46 51.53809 -39.84879 36354 ft 464 kts 254°
2026-05-08 16:47 51.51392 -39.94495 36349 ft 463 kts 255°
2026-05-08 16:47 51.49368 -40.04255 36351 ft 458 kts 261°
2026-05-08 16:48 51.47842 -40.14157 36346 ft 456 kts 263°
2026-05-08 16:48 51.46360 -40.23989 36337 ft 455 kts 262°
2026-05-08 16:49 51.44844 -40.33924 36329 ft 455 kts 262°
2026-05-08 16:49 51.43327 -40.43786 36335 ft 455 kts 262°
2026-05-08 16:50 51.41804 -40.53636 36328 ft 455 kts 262°
2026-05-08 16:50 51.40281 -40.63424 36329 ft 455 kts 262°
2026-05-08 16:51 51.38746 -40.73247 36317 ft 453 kts 262°
2026-05-08 16:51 51.37204 -40.83029 36314 ft 452 kts 262°
2026-05-08 16:52 51.35654 -40.92812 36318 ft 452 kts 261°
2026-05-08 16:52 51.34097 -41.02579 36319 ft 452 kts 261°
2026-05-08 16:53 51.31750 -41.17206 36302 ft 451 kts 261°
2026-05-08 16:53 51.30184 -41.26890 36301 ft 448 kts 261°
2026-05-08 16:54 51.28614 -41.36544 36302 ft 448 kts 261°
2026-05-08 16:54 51.27035 -41.46195 36299 ft 448 kts 261°
2026-05-08 16:55 51.25449 -41.55834 36298 ft 448 kts 261°
2026-05-08 16:55 51.23862 -41.65459 36270 ft 445 kts 259°
2026-05-08 16:56 51.22280 -41.74979 36281 ft 442 kts 259°
2026-05-08 16:56 51.20690 -41.84460 36286 ft 442 kts 259°
2026-05-08 16:57 51.19093 -41.93947 36293 ft 442 kts 259°
2026-05-08 16:57 51.17489 -42.03421 36280 ft 442 kts 259°
2026-05-08 16:58 51.15880 -42.12882 36273 ft 442 kts 259°
2026-05-08 16:58 51.14536 -42.20743 36273 ft 442 kts 259°
2026-05-08 16:59 51.12912 -42.30201 36272 ft 442 kts 259°
2026-05-08 16:59 51.11282 -42.39642 36269 ft 442 kts 259°
2026-05-08 17:00 51.09642 -42.49081 36263 ft 442 kts 259°
2026-05-08 17:00 51.07997 -42.58510 36261 ft 442 kts 259°
2026-05-08 17:01 51.06348 -42.67928 36246 ft 441 kts 258°
2026-05-08 17:01 51.04690 -42.77319 36243 ft 441 kts 258°
2026-05-08 17:02 51.03030 -42.86686 36250 ft 438 kts 258°
2026-05-08 17:02 51.01366 -42.96012 36245 ft 438 kts 258°
2026-05-08 17:03 50.99696 -43.05330 36235 ft 438 kts 258°
2026-05-08 17:03 50.98022 -43.14641 36229 ft 437 kts 257°
2026-05-08 17:04 50.96344 -43.23906 36227 ft 436 kts 257°
2026-05-08 17:04 50.94658 -43.33165 36228 ft 436 kts 257°
2026-05-08 17:05 50.92966 -43.42415 36221 ft 436 kts 257°
2026-05-08 17:05 50.91265 -43.51668 36215 ft 436 kts 257°
2026-05-08 17:06 50.89562 -43.60903 36205 ft 435 kts 256°
2026-05-08 17:06 50.87853 -43.70105 36207 ft 435 kts 256°
2026-05-08 17:07 50.86138 -43.79289 36203 ft 435 kts 256°
2026-05-08 17:07 50.84415 -43.88477 36203 ft 435 kts 256°
2026-05-08 17:08 50.82692 -43.97647 36197 ft 433 kts 256°
2026-05-08 17:08 50.80966 -44.06762 36192 ft 431 kts 255°
2026-05-08 17:09 50.79238 -44.15843 36185 ft 431 kts 255°
2026-05-08 17:09 50.77511 -44.24863 36185 ft 431 kts 255°
2026-05-08 17:10 50.75767 -44.33937 36182 ft 431 kts 255°
2026-05-08 17:10 50.74015 -44.43011 36173 ft 431 kts 255°
2026-05-08 17:11 50.72260 -44.52064 36160 ft 431 kts 255°
2026-05-08 17:11 50.70500 -44.61109 36164 ft 430 kts 254°
2026-05-08 17:12 50.68729 -44.70147 36164 ft 430 kts 254°
2026-05-08 17:12 50.66952 -44.79179 36156 ft 431 kts 254°
2026-05-08 17:13 50.65170 -44.88197 36146 ft 430 kts 254°
2026-05-08 17:13 50.63379 -44.97218 36143 ft 430 kts 254°
2026-05-08 17:14 50.61588 -45.06222 36152 ft 430 kts 253°
2026-05-08 17:14 50.59789 -45.15198 36135 ft 429 kts 253°
2026-05-08 17:15 50.57983 -45.24157 36131 ft 429 kts 253°
2026-05-08 17:15 50.56170 -45.33118 36114 ft 429 kts 253°
2026-05-08 17:16 50.54353 -45.42061 36115 ft 429 kts 253°
2026-05-08 17:16 50.52527 -45.51021 36104 ft 430 kts 253°
2026-05-08 17:17 50.50689 -45.59981 36111 ft 430 kts 252°
2026-05-08 17:17 50.48844 -45.68940 36104 ft 431 kts 252°
2026-05-08 17:18 50.46990 -45.77902 36096 ft 431 kts 252°
2026-05-08 17:18 50.45131 -45.86848 36085 ft 431 kts 252°
2026-05-08 17:19 50.43269 -45.95785 36082 ft 431 kts 252°
2026-05-08 17:19 50.41393 -46.04730 36076 ft 431 kts 252°
2026-05-08 17:20 50.39508 -46.13678 36075 ft 431 kts 252°
2026-05-08 17:20 50.37623 -46.22604 36060 ft 430 kts 251°
2026-05-08 17:21 50.35729 -46.31508 36060 ft 430 kts 251°
2026-05-08 17:21 50.33831 -46.40403 36053 ft 430 kts 251°
2026-05-08 17:22 50.31924 -46.49303 36054 ft 431 kts 251°
2026-05-08 17:22 50.30006 -46.58207 36040 ft 431 kts 251°
2026-05-08 17:23 50.28084 -46.67098 36042 ft 431 kts 251°
2026-05-08 17:23 50.26167 -46.75923 36034 ft 431 kts 251°
2026-05-08 17:24 50.24230 -46.84807 36035 ft 431 kts 251°
2026-05-08 17:24 50.22288 -46.93679 36025 ft 431 kts 250°
2026-05-08 17:25 50.20332 -47.02568 36021 ft 431 kts 250°
2026-05-08 17:25 50.18377 -47.11421 36007 ft 431 kts 250°
2026-05-08 17:26 50.16413 -47.20279 36008 ft 431 kts 250°
2026-05-08 17:26 50.14449 -47.29111 36015 ft 430 kts 250°
2026-05-08 17:27 50.12479 -47.37923 36005 ft 429 kts 249°
2026-05-08 17:27 50.10503 -47.46709 35988 ft 429 kts 249°
2026-05-08 17:28 50.08519 -47.55497 35987 ft 429 kts 249°
2026-05-08 17:28 50.06530 -47.64278 35988 ft 429 kts 249°
2026-05-08 17:29 50.04535 -47.73045 35979 ft 429 kts 249°
2026-05-08 17:29 50.02541 -47.81793 35982 ft 428 kts 249°
2026-05-08 17:30 50.00539 -47.90515 35963 ft 427 kts 249°
2026-05-08 17:30 49.98533 -47.99222 35963 ft 427 kts 249°
2026-05-08 17:31 49.96520 -48.07923 35956 ft 427 kts 249°
2026-05-08 17:31 49.94501 -48.16618 35955 ft 427 kts 249°
2026-05-08 17:32 49.92480 -48.25303 35932 ft 427 kts 248°
2026-05-08 17:32 49.90455 -48.33971 35940 ft 426 kts 248°
2026-05-08 17:33 49.88425 -48.42600 35923 ft 425 kts 248°
2026-05-08 17:33 49.86390 -48.51214 35923 ft 425 kts 247°
2026-05-08 17:34 49.84347 -48.59836 35916 ft 425 kts 247°
2026-05-08 17:34 49.82301 -48.68447 35922 ft 425 kts 247°
2026-05-08 17:35 49.80262 -48.76983 35906 ft 425 kts 247°
2026-05-08 17:35 49.78201 -48.85576 35906 ft 425 kts 247°
2026-05-08 17:36 49.76137 -48.94154 35903 ft 425 kts 247°
2026-05-08 17:36 49.74053 -49.02778 35904 ft 425 kts 246°
2026-05-08 17:37 49.71991 -49.11291 35900 ft 425 kts 246°
2026-05-08 17:37 49.69904 -49.19859 35890 ft 425 kts 246°
2026-05-08 17:38 49.67811 -49.28422 35881 ft 426 kts 246°
2026-05-08 17:38 49.65714 -49.36980 35900 ft 425 kts 246°
2026-05-08 17:39 49.63612 -49.45513 35883 ft 424 kts 245°
2026-05-08 17:39 49.61505 -49.54030 35878 ft 425 kts 245°
2026-05-08 17:40 49.59390 -49.62546 35869 ft 425 kts 245°
2026-05-08 17:40 49.57265 -49.71071 35867 ft 425 kts 245°
2026-05-08 17:41 49.55139 -49.79572 35861 ft 425 kts 245°
2026-05-08 17:41 49.53003 -49.88081 35863 ft 425 kts 245°
2026-05-08 17:42 49.50864 -49.96569 35849 ft 425 kts 245°
2026-05-08 17:42 49.48756 -50.05094 35842 ft 426 kts 246°
2026-05-08 17:43 49.46710 -50.13658 35841 ft 426 kts 246°
2026-05-08 17:43 49.44990 -50.20829 35844 ft 426 kts 246°
2026-05-08 17:44 49.42943 -50.29315 35838 ft 426 kts 246°
2026-05-08 17:44 49.40879 -50.37855 35840 ft 425 kts 245°
2026-05-08 17:45 49.38812 -50.46359 35832 ft 424 kts 244°
2026-05-08 17:45 49.36730 -50.54853 35819 ft 424 kts 244°
2026-05-08 17:46 49.34646 -50.63336 35822 ft 424 kts 244°
2026-05-08 17:46 49.32556 -50.71816 35814 ft 424 kts 244°
2026-05-08 17:47 49.30461 -50.80287 35799 ft 425 kts 244°
2026-05-08 17:47 49.28347 -50.88815 35798 ft 424 kts 244°
2026-05-08 17:48 49.26240 -50.97265 35795 ft 424 kts 244°
2026-05-08 17:48 49.24142 -51.05646 35798 ft 424 kts 244°
2026-05-08 17:49 49.22011 -51.14134 35788 ft 424 kts 244°
2026-05-08 17:49 49.19887 -51.22561 35782 ft 424 kts 244°
2026-05-08 17:50 49.17772 -51.30922 35781 ft 424 kts 243°
2026-05-08 17:50 49.15634 -51.39343 35776 ft 424 kts 243°
2026-05-08 17:51 49.13494 -51.47743 35772 ft 424 kts 243°
2026-05-08 17:51 49.11345 -51.56141 35763 ft 424 kts 243°
2026-05-08 17:52 49.09190 -51.64535 35761 ft 424 kts 243°
2026-05-08 17:53 49.05963 -51.77066 35764 ft 421 kts 243°
2026-05-08 17:53 49.03807 -51.85374 35754 ft 421 kts 243°
2026-05-08 17:54 49.01648 -51.93669 35750 ft 420 kts 243°
2026-05-08 17:54 48.99484 -52.01944 35750 ft 420 kts 242°
2026-05-08 17:55 48.97282 -52.10197 35755 ft 420 kts 242°
2026-05-08 17:55 48.95080 -52.18419 35752 ft 418 kts 242°
2026-05-08 17:56 48.92877 -52.26609 35774 ft 418 kts 242°
2026-05-08 17:56 48.90668 -52.34797 35735 ft 418 kts 242°
2026-05-08 17:57 48.88456 -52.42965 35734 ft 418 kts 242°
2026-05-08 17:57 48.86237 -52.51132 35732 ft 418 kts 241°
2026-05-08 17:58 48.84016 -52.59285 35732 ft 416 kts 241°
2026-05-08 17:58 48.81793 -52.67411 35720 ft 416 kts 241°
2026-05-08 17:59 48.79567 -52.75522 35713 ft 416 kts 241°
2026-05-08 17:59 48.77334 -52.83628 35713 ft 416 kts 241°
2026-05-08 18:00 48.75094 -52.91735 35711 ft 416 kts 241°
2026-05-08 18:00 48.71732 -53.03853 35693 ft 415 kts 241°
2026-05-08 18:01 48.69487 -53.11905 35692 ft 415 kts 241°
2026-05-08 18:01 48.67235 -53.19959 35685 ft 415 kts 241°
2026-05-08 18:02 48.65366 -53.26638 35695 ft 415 kts 240°
2026-05-08 18:02 48.62720 -53.36034 35685 ft 415 kts 240°
2026-05-08 18:03 48.60458 -53.44046 35673 ft 413 kts 240°
2026-05-08 18:03 48.58194 -53.52027 35671 ft 413 kts 240°
2026-05-08 18:04 48.55927 -53.59998 35663 ft 413 kts 240°
2026-05-08 18:04 48.53653 -53.67965 35664 ft 413 kts 240°
2026-05-08 18:05 48.51375 -53.75921 35661 ft 413 kts 240°
2026-05-08 18:05 48.49101 -53.83851 35656 ft 410 kts 239°
2026-05-08 18:06 48.46824 -53.91750 35654 ft 410 kts 239°
2026-05-08 18:06 48.44543 -53.99637 35650 ft 410 kts 239°
2026-05-08 18:07 48.42260 -54.07505 35645 ft 410 kts 239°
2026-05-08 18:07 48.39970 -54.15377 35694 ft 410 kts 239°
2026-05-08 18:08 48.37686 -54.23224 35657 ft 408 kts 238°
2026-05-08 18:08 48.35394 -54.31038 35648 ft 408 kts 238°
2026-05-08 18:09 48.33099 -54.38841 35645 ft 408 kts 238°
2026-05-08 18:09 48.30797 -54.46648 35647 ft 408 kts 238°
2026-05-08 18:10 48.28493 -54.54439 35638 ft 408 kts 238°
2026-05-08 18:10 48.26183 -54.62234 35652 ft 408 kts 238°
2026-05-08 18:11 48.23866 -54.70017 35648 ft 408 kts 238°
2026-05-08 18:11 48.21544 -54.77793 35644 ft 408 kts 238°
2026-05-08 18:12 48.19215 -54.85569 35632 ft 408 kts 238°
2026-05-08 18:12 48.16883 -54.93331 35610 ft 408 kts 238°
2026-05-08 18:13 48.14549 -55.01081 35614 ft 408 kts 237°
2026-05-08 18:13 48.12216 -55.08815 35637 ft 405 kts 237°
2026-05-08 18:14 48.09895 -55.16474 35611 ft 403 kts 236°
2026-05-08 18:14 48.07572 -55.24098 35587 ft 402 kts 236°
2026-05-08 18:15 48.05242 -55.31727 35579 ft 402 kts 236°
2026-05-08 18:15 48.02909 -55.39345 35581 ft 402 kts 236°
2026-05-08 18:16 48.00576 -55.46945 35573 ft 402 kts 236°
2026-05-08 18:16 47.98223 -55.54585 35572 ft 402 kts 236°
2026-05-08 18:17 47.95877 -55.62181 35562 ft 403 kts 236°
2026-05-08 18:17 47.93524 -55.69773 35564 ft 402 kts 236°
2026-05-08 18:18 47.91170 -55.77349 35574 ft 402 kts 236°
2026-05-08 18:18 47.88817 -55.84905 35556 ft 401 kts 236°
2026-05-08 18:19 47.86459 -55.92445 35551 ft 401 kts 236°
2026-05-08 18:19 47.84101 -55.99976 35572 ft 399 kts 235°
2026-05-08 18:20 47.81749 -56.07454 35555 ft 398 kts 235°
2026-05-08 18:20 47.79389 -56.14928 35551 ft 399 kts 235°
2026-05-08 18:21 47.77023 -56.22407 35552 ft 399 kts 235°
2026-05-08 18:21 47.74652 -56.29875 35555 ft 399 kts 235°
2026-05-08 18:22 47.72277 -56.37335 35560 ft 399 kts 235°
2026-05-08 18:22 47.69897 -56.44791 35569 ft 399 kts 235°
2026-05-08 18:23 47.67914 -56.50986 35565 ft 399 kts 235°
2026-05-08 18:23 47.65525 -56.58435 35585 ft 400 kts 234°
2026-05-08 18:24 47.63123 -56.65894 35587 ft 400 kts 234°
2026-05-08 18:24 47.60716 -56.73348 35591 ft 400 kts 234°
2026-05-08 18:25 47.58310 -56.80787 35590 ft 400 kts 234°
2026-05-08 18:25 47.55899 -56.88235 35604 ft 401 kts 234°
2026-05-08 18:26 47.53475 -56.95684 35614 ft 402 kts 233°
2026-05-08 18:26 47.51039 -57.03143 35615 ft 403 kts 233°
2026-05-08 18:27 47.49005 -57.09350 35611 ft 402 kts 233°
2026-05-08 18:27 47.46145 -57.18059 35612 ft 402 kts 233°
2026-05-08 18:28 47.43693 -57.25502 35611 ft 402 kts 233°
2026-05-08 18:28 47.41235 -57.32943 35625 ft 403 kts 233°
2026-05-08 18:29 47.38766 -57.40394 35615 ft 404 kts 233°
2026-05-08 18:29 47.36292 -57.47837 35614 ft 404 kts 233°
2026-05-08 18:30 47.33811 -57.55278 35614 ft 404 kts 233°
2026-05-08 18:30 47.31328 -57.62707 35614 ft 404 kts 233°
2026-05-08 18:31 47.28839 -57.70134 35694 ft 404 kts 233°
2026-05-08 18:31 47.26331 -57.77592 35631 ft 406 kts 233°
2026-05-08 18:32 47.23821 -57.85039 35625 ft 406 kts 232°
2026-05-08 18:32 47.21305 -57.92478 35607 ft 406 kts 232°
2026-05-08 18:33 47.18781 -57.99922 35613 ft 406 kts 232°
2026-05-08 18:33 47.16255 -58.07351 35635 ft 406 kts 232°
2026-05-08 18:34 47.13717 -58.14789 35622 ft 407 kts 232°
2026-05-08 18:34 47.11175 -58.22225 35620 ft 407 kts 232°
2026-05-08 18:35 47.08630 -58.29647 35620 ft 407 kts 232°
2026-05-08 18:35 47.06075 -58.37076 35627 ft 407 kts 232°
2026-05-08 18:36 47.03520 -58.44481 35655 ft 407 kts 232°
2026-05-08 18:36 47.00952 -58.51900 35639 ft 408 kts 232°
2026-05-08 18:37 46.98378 -58.59320 35646 ft 409 kts 233°
2026-05-08 18:37 46.95794 -58.66752 35634 ft 409 kts 233°
2026-05-08 18:38 46.93205 -58.74175 35632 ft 409 kts 232°
2026-05-08 18:38 46.90609 -58.81593 35646 ft 409 kts 233°
2026-05-08 18:39 46.87986 -58.89063 35637 ft 410 kts 233°
2026-05-08 18:39 46.85395 -58.96436 35636 ft 410 kts 233°
2026-05-08 18:40 46.82784 -59.03841 35639 ft 410 kts 233°
2026-05-08 18:40 46.80160 -59.11260 35642 ft 410 kts 233°
2026-05-08 18:41 46.77534 -59.18660 35642 ft 410 kts 233°
2026-05-08 18:41 46.74905 -59.26053 35650 ft 410 kts 233°
2026-05-08 18:42 46.72269 -59.33440 35650 ft 410 kts 233°
2026-05-08 18:42 46.69624 -59.40824 35679 ft 411 kts 233°
2026-05-08 18:43 46.66971 -59.48222 35660 ft 412 kts 233°
2026-05-08 18:43 46.64306 -59.55622 35667 ft 413 kts 233°
2026-05-08 18:44 46.61634 -59.63033 35659 ft 413 kts 233°
2026-05-08 18:44 46.58957 -59.70440 35667 ft 413 kts 233°
2026-05-08 18:45 46.56272 -59.77844 35664 ft 413 kts 233°
2026-05-08 18:45 46.53584 -59.85237 35665 ft 413 kts 233°
2026-05-08 18:46 46.50885 -59.92625 35672 ft 414 kts 233°
2026-05-08 18:46 46.48184 -60.00011 35671 ft 415 kts 233°
2026-05-08 18:47 46.45472 -60.07412 35668 ft 414 kts 233°
2026-05-08 18:47 46.42758 -60.14793 35669 ft 414 kts 233°
2026-05-08 18:48 46.40038 -60.22170 35668 ft 414 kts 233°
2026-05-08 18:48 46.37302 -60.29544 35673 ft 416 kts 234°
2026-05-08 18:49 46.34569 -60.36926 35674 ft 416 kts 234°
2026-05-08 18:49 46.31829 -60.44303 35658 ft 416 kts 234°
2026-05-08 18:50 46.29083 -60.51671 35675 ft 416 kts 234°
2026-05-08 18:50 46.26330 -60.59035 35665 ft 415 kts 234°
2026-05-08 18:51 46.23573 -60.66381 35668 ft 416 kts 234°
2026-05-08 18:51 46.20813 -60.73729 35658 ft 416 kts 234°
2026-05-08 18:52 46.18046 -60.81073 35658 ft 416 kts 234°
2026-05-08 18:52 46.15276 -60.88404 35659 ft 416 kts 234°
2026-05-08 18:53 46.12498 -60.95724 35706 ft 416 kts 235°
2026-05-08 18:53 46.09715 -61.03046 35682 ft 416 kts 235°
2026-05-08 18:54 46.06928 -61.10368 35677 ft 416 kts 235°
2026-05-08 18:54 46.04133 -61.17688 35670 ft 417 kts 235°
2026-05-08 18:55 45.99933 -61.28648 35669 ft 416 kts 235°
2026-05-08 18:56 45.97128 -61.35938 35673 ft 416 kts 235°
2026-05-08 18:56 45.94323 -61.43215 35660 ft 416 kts 235°
2026-05-08 18:57 45.91495 -61.50531 35675 ft 416 kts 235°
2026-05-08 18:57 45.88699 -61.57743 35673 ft 416 kts 235°
2026-05-08 18:58 45.85879 -61.64993 35681 ft 415 kts 235°
2026-05-08 18:58 45.83058 -61.72234 35690 ft 415 kts 235°
2026-05-08 18:59 45.80231 -61.79472 35714 ft 416 kts 235°
2026-05-08 18:59 45.77400 -61.86699 35691 ft 416 kts 235°
2026-05-08 19:00 45.75021 -61.92758 35691 ft 416 kts 235°
2026-05-08 19:00 45.71707 -62.01150 35693 ft 419 kts 236°
2026-05-08 19:01 45.68841 -62.08417 35690 ft 419 kts 236°
2026-05-08 19:01 45.65967 -62.15682 35684 ft 419 kts 236°
2026-05-08 19:02 45.63087 -62.22944 35685 ft 419 kts 236°
2026-05-08 19:02 45.60196 -62.30206 35692 ft 419 kts 236°
2026-05-08 19:03 45.57303 -62.37452 35684 ft 419 kts 236°
2026-05-08 19:03 45.54881 -62.43511 35682 ft 419 kts 236°
2026-05-08 19:04 45.51983 -62.50743 35714 ft 419 kts 236°
2026-05-08 19:04 45.49066 -62.57986 35686 ft 422 kts 236°
2026-05-08 19:05 45.46132 -62.65271 35678 ft 422 kts 236°
2026-05-08 19:05 45.43200 -62.72530 35676 ft 422 kts 236°
2026-05-08 19:06 45.40264 -62.79779 35681 ft 422 kts 236°
2026-05-08 19:06 45.37312 -62.87046 35672 ft 422 kts 236°
2026-05-08 19:07 45.34366 -62.94280 35675 ft 422 kts 236°
2026-05-08 19:07 45.31413 -63.01505 35676 ft 423 kts 236°
2026-05-08 19:08 45.28457 -63.08729 35675 ft 423 kts 236°
2026-05-08 19:08 45.25493 -63.15952 35677 ft 423 kts 236°
2026-05-08 19:09 45.22527 -63.23161 35681 ft 423 kts 236°
2026-05-08 19:09 45.19542 -63.30378 35693 ft 426 kts 237°
2026-05-08 19:10 45.16541 -63.37638 35685 ft 427 kts 237°
2026-05-08 19:10 45.13536 -63.44893 35690 ft 427 kts 237°
2026-05-08 19:11 45.10522 -63.52146 35696 ft 427 kts 237°
2026-05-08 19:11 45.07504 -63.59387 35694 ft 427 kts 237°
2026-05-08 19:12 45.04476 -63.66627 35694 ft 427 kts 237°
2026-05-08 19:12 45.01445 -63.73864 35696 ft 427 kts 237°
2026-05-08 19:13 44.98407 -63.81099 35696 ft 427 kts 237°
2026-05-08 19:13 44.95366 -63.88321 35693 ft 427 kts 237°
2026-05-08 19:14 44.92315 -63.95540 35688 ft 427 kts 237°
2026-05-08 19:14 44.89268 -64.02733 35712 ft 429 kts 237°
2026-05-08 19:15 44.86196 -64.09976 35694 ft 430 kts 237°
2026-05-08 19:15 44.83123 -64.17203 35691 ft 430 kts 237°
2026-05-08 19:16 44.80041 -64.24430 35689 ft 430 kts 237°
2026-05-08 19:16 44.76955 -64.31642 35693 ft 430 kts 237°
2026-05-08 19:17 44.73868 -64.38845 35693 ft 429 kts 237°
2026-05-08 19:17 44.70773 -64.46048 35694 ft 430 kts 237°
2026-05-08 19:18 44.67677 -64.53235 35696 ft 429 kts 237°
2026-05-08 19:18 44.64575 -64.60407 35703 ft 429 kts 238°
2026-05-08 19:19 44.61475 -64.67568 35710 ft 428 kts 238°
2026-05-08 19:19 44.58363 -64.74734 35721 ft 430 kts 238°
2026-05-08 19:20 44.55238 -64.81918 35715 ft 431 kts 238°
2026-05-08 19:20 44.52106 -64.89090 35731 ft 430 kts 238°
2026-05-08 19:21 44.48979 -64.96241 35729 ft 429 kts 238°
2026-05-08 19:21 44.45853 -65.03373 35732 ft 429 kts 238°
2026-05-08 19:22 44.42720 -65.10501 35742 ft 429 kts 238°
2026-05-08 19:22 44.39579 -65.17626 35742 ft 429 kts 238°
2026-05-08 19:23 44.36444 -65.24719 35760 ft 428 kts 238°
2026-05-08 19:23 44.33306 -65.31805 35758 ft 428 kts 238°
2026-05-08 19:24 44.30165 -65.38881 35751 ft 428 kts 238°
2026-05-08 19:24 44.27000 -65.45987 35773 ft 430 kts 238°
2026-05-08 19:25 44.23832 -65.53085 35772 ft 430 kts 238°
2026-05-08 19:25 44.20663 -65.60174 35769 ft 430 kts 238°
2026-05-08 19:26 44.17490 -65.67252 35777 ft 430 kts 238°
2026-05-08 19:26 44.14312 -65.74323 35781 ft 430 kts 238°
2026-05-08 19:27 44.11128 -65.81389 35786 ft 430 kts 238°
2026-05-08 19:27 44.07938 -65.88452 35795 ft 430 kts 238°
2026-05-08 19:28 44.04748 -65.95498 35805 ft 430 kts 238°
2026-05-08 19:28 44.01573 -66.02493 35807 ft 430 kts 238°
2026-05-08 19:29 43.98370 -66.09529 35823 ft 430 kts 238°
2026-05-08 19:29 43.95141 -66.16605 35816 ft 431 kts 238°
2026-05-08 19:30 43.91929 -66.23634 35811 ft 431 kts 238°
2026-05-08 19:30 43.88711 -66.30657 35811 ft 431 kts 238°
2026-05-08 19:31 43.85488 -66.37670 35802 ft 431 kts 238°
2026-05-08 19:31 43.82268 -66.44658 35809 ft 430 kts 238°
2026-05-08 19:32 43.79061 -66.51607 35808 ft 430 kts 238°
2026-05-08 19:32 43.75833 -66.58584 35818 ft 430 kts 238°
2026-05-08 19:33 43.72598 -66.65559 35816 ft 430 kts 238°
2026-05-08 19:33 43.69360 -66.72514 35823 ft 429 kts 238°
2026-05-08 19:34 43.66121 -66.79464 35833 ft 431 kts 239°
2026-05-08 19:34 43.62866 -66.86433 35830 ft 431 kts 239°
2026-05-08 19:35 43.59605 -66.93395 35830 ft 431 kts 238°
2026-05-08 19:35 43.56372 -67.00357 35822 ft 430 kts 240°
2026-05-08 19:36 43.53373 -67.07499 35832 ft 430 kts 242°
2026-05-08 19:36 43.50375 -67.14629 35836 ft 429 kts 241°
2026-05-08 19:37 43.47374 -67.21754 35837 ft 430 kts 241°
2026-05-08 19:37 43.44366 -67.28876 35846 ft 429 kts 242°
2026-05-08 19:38 43.41362 -67.35974 35848 ft 428 kts 242°
2026-05-08 19:38 43.38357 -67.43061 35840 ft 428 kts 241°
2026-05-08 19:39 43.35348 -67.50138 35849 ft 429 kts 241°
2026-05-08 19:39 43.32334 -67.57209 35826 ft 429 kts 241°
2026-05-08 19:40 43.29322 -67.64253 35849 ft 426 kts 242°
2026-05-08 19:40 43.26314 -67.71279 35850 ft 426 kts 242°
2026-05-08 19:41 43.23303 -67.78294 35856 ft 426 kts 242°
2026-05-08 19:41 43.20286 -67.85303 35854 ft 426 kts 241°
2026-05-08 19:42 43.17268 -67.92293 35848 ft 424 kts 242°
2026-05-08 19:42 43.14261 -67.99245 35863 ft 424 kts 242°
2026-05-08 19:43 43.11758 -68.05021 35861 ft 424 kts 242°
2026-05-08 19:43 43.08740 -68.11972 35862 ft 424 kts 242°
2026-05-08 19:44 43.05716 -68.18918 35842 ft 424 kts 242°
2026-05-08 19:44 43.02697 -68.25832 35858 ft 422 kts 242°
2026-05-08 19:45 42.99682 -68.32729 35864 ft 422 kts 242°
2026-05-08 19:45 42.96661 -68.39620 35867 ft 422 kts 242°
2026-05-08 19:46 42.93638 -68.46499 35865 ft 422 kts 242°
2026-05-08 19:46 42.89096 -68.56797 35865 ft 421 kts 242°
2026-05-08 19:47 42.86068 -68.63650 35869 ft 422 kts 242°
2026-05-08 19:47 42.83034 -68.70500 35867 ft 422 kts 242°
2026-05-08 19:48 42.79994 -68.77346 35870 ft 422 kts 242°
2026-05-08 19:48 42.76952 -68.84180 35868 ft 422 kts 242°
2026-05-08 19:49 42.73901 -68.91017 35871 ft 423 kts 242°
2026-05-08 19:49 42.70838 -68.97865 35872 ft 423 kts 242°
2026-05-08 19:50 42.67773 -69.04702 35874 ft 423 kts 242°
2026-05-08 19:50 42.64705 -69.11528 35864 ft 422 kts 242°
2026-05-08 19:51 42.61639 -69.18337 35871 ft 422 kts 242°
2026-05-08 19:51 42.58563 -69.25150 35882 ft 423 kts 242°
2026-05-08 19:52 42.55479 -69.31967 35878 ft 424 kts 242°
2026-05-08 19:52 42.52389 -69.38783 35846 ft 424 kts 242°
2026-05-08 19:53 42.49305 -69.45564 35880 ft 421 kts 242°
2026-05-08 19:53 42.46229 -69.52320 35868 ft 421 kts 242°
2026-05-08 19:54 42.43135 -69.59092 35883 ft 423 kts 242°
2026-05-08 19:54 42.40037 -69.65865 35883 ft 423 kts 242°
2026-05-08 19:55 42.36936 -69.72623 35866 ft 421 kts 242°
2026-05-08 19:55 42.33846 -69.79346 35876 ft 420 kts 242°
2026-05-08 19:56 42.30755 -69.86056 35877 ft 420 kts 242°
2026-05-08 19:56 42.27647 -69.92785 35882 ft 423 kts 242°
2026-05-08 19:57 42.24526 -69.99531 35837 ft 423 kts 242°
2026-05-08 19:57 42.21412 -70.06243 35876 ft 421 kts 242°
2026-05-08 19:58 42.18295 -70.12947 35875 ft 421 kts 242°
2026-05-08 19:58 42.15174 -70.19646 35877 ft 421 kts 242°
2026-05-08 19:59 42.12056 -70.26359 35670 ft 423 kts 243°
2026-05-08 19:59 42.10496 -70.29721 35459 ft 423 kts 243°
2026-05-08 19:59 42.08938 -70.33069 35259 ft 421 kts 243°
2026-05-08 20:00 42.07380 -70.36410 35064 ft 420 kts 243°
2026-05-08 20:00 42.05823 -70.39737 34876 ft 420 kts 243°
2026-05-08 20:00 42.04263 -70.43064 34684 ft 420 kts 243°
2026-05-08 20:00 42.02701 -70.46385 34505 ft 419 kts 243°
2026-05-08 20:01 42.01141 -70.49697 34326 ft 419 kts 243°
2026-05-08 20:01 41.99581 -70.53004 34141 ft 419 kts 243°
2026-05-08 20:01 41.98015 -70.56306 33990 ft 417 kts 243°
2026-05-08 20:01 41.96445 -70.59578 33796 ft 415 kts 243°
2026-05-08 20:02 41.94874 -70.62829 33546 ft 414 kts 243°
2026-05-08 20:02 41.93300 -70.66067 33314 ft 413 kts 243°
2026-05-08 20:02 41.91725 -70.69289 33095 ft 405 kts 243°
2026-05-08 20:02 41.90179 -70.72426 32886 ft 402 kts 243°
2026-05-08 20:03 41.88632 -70.75550 32663 ft 401 kts 243°
2026-05-08 20:03 41.87084 -70.78666 32461 ft 401 kts 243°
2026-05-08 20:03 41.85530 -70.81780 32250 ft 401 kts 243°
2026-05-08 20:03 41.83974 -70.84888 32053 ft 401 kts 243°
2026-05-08 20:04 41.82409 -70.88001 31842 ft 401 kts 243°
2026-05-08 20:04 41.80838 -70.91097 31589 ft 402 kts 243°
2026-05-08 20:04 41.79258 -70.94183 31385 ft 401 kts 243°
2026-05-08 20:04 41.77673 -70.97266 31190 ft 401 kts 243°
2026-05-08 20:05 41.76091 -71.00335 31005 ft 401 kts 243°
2026-05-08 20:05 41.74502 -71.03412 30807 ft 401 kts 243°
2026-05-08 20:05 41.72912 -71.06484 30608 ft 401 kts 243°
2026-05-08 20:05 41.71316 -71.09562 30406 ft 401 kts 243°
2026-05-08 20:06 41.69720 -71.12632 30212 ft 402 kts 243°
2026-05-08 20:06 41.68122 -71.15700 30023 ft 402 kts 243°
2026-05-08 20:06 41.66520 -71.18771 29796 ft 402 kts 243°
2026-05-08 20:06 41.64924 -71.21842 29525 ft 403 kts 243°
2026-05-08 20:07 41.63332 -71.24932 29299 ft 403 kts 243°
2026-05-08 20:07 41.61743 -71.28027 29059 ft 404 kts 243°
2026-05-08 20:07 41.60153 -71.31129 28841 ft 404 kts 243°
2026-05-08 20:07 41.58565 -71.34234 28631 ft 405 kts 243°
2026-05-08 20:08 41.56973 -71.37353 28420 ft 406 kts 243°
2026-05-08 20:08 41.55383 -71.40480 28183 ft 407 kts 243°
2026-05-08 20:08 41.53795 -71.43610 27873 ft 408 kts 243°
2026-05-08 20:08 41.52204 -71.46755 27511 ft 409 kts 243°
2026-05-08 20:09 41.50581 -71.49882 27046 ft 413 kts 239°
2026-05-08 20:09 41.48595 -71.52699 26651 ft 418 kts 232°
2026-05-08 20:09 41.46523 -71.55411 26274 ft 414 kts 235°
2026-05-08 20:09 41.44634 -71.58304 25904 ft 411 kts 237°
2026-05-08 20:10 41.42809 -71.61220 25521 ft 409 kts 237°
2026-05-08 20:10 41.40987 -71.64125 25157 ft 407 kts 237°
2026-05-08 20:10 41.39163 -71.67005 24791 ft 405 kts 237°
2026-05-08 20:10 41.37340 -71.69858 24430 ft 403 kts 237°
2026-05-08 20:11 41.35519 -71.72692 24079 ft 402 kts 237°
2026-05-08 20:11 41.33700 -71.75512 23734 ft 400 kts 237°
2026-05-08 20:11 41.31885 -71.78317 23357 ft 398 kts 237°
2026-05-08 20:11 41.30082 -71.81096 22935 ft 394 kts 237°
2026-05-08 20:12 41.28302 -71.83831 22518 ft 386 kts 237°
2026-05-08 20:12 41.26559 -71.86505 22107 ft 379 kts 237°
2026-05-08 20:12 41.24851 -71.89127 21699 ft 372 kts 237°
2026-05-08 20:12 41.23171 -71.91704 21316 ft 366 kts 237°
2026-05-08 20:13 41.21517 -71.94241 20911 ft 359 kts 237°
2026-05-08 20:13 41.19893 -71.96732 20549 ft 354 kts 237°
2026-05-08 20:13 41.18292 -71.99185 20140 ft 349 kts 237°
2026-05-08 20:13 41.16722 -72.01592 19757 ft 343 kts 237°
2026-05-08 20:14 41.15164 -72.03974 19388 ft 338 kts 237°
2026-05-08 20:14 41.13703 -72.06383 19027 ft 331 kts 240°
2026-05-08 20:14 41.12377 -72.08843 18655 ft 324 kts 243°
2026-05-08 20:14 41.11177 -72.11349 18298 ft 318 kts 246°
2026-05-08 20:15 41.10100 -72.13886 17891 ft 312 kts 249°
2026-05-08 20:15 41.09144 -72.16439 17472 ft 307 kts 251°
2026-05-08 20:15 41.08302 -72.19017 17077 ft 302 kts 254°
2026-05-08 20:15 41.07570 -72.21609 16680 ft 297 kts 257°
2026-05-08 20:16 41.06924 -72.24189 16283 ft 293 kts 257°
2026-05-08 20:16 41.06288 -72.26745 15893 ft 290 kts 257°
2026-05-08 20:16 41.05656 -72.29281 15500 ft 288 kts 257°
2026-05-08 20:16 41.05031 -72.31792 15112 ft 284 kts 257°
2026-05-08 20:17 41.04415 -72.34263 14734 ft 281 kts 257°
2026-05-08 20:17 41.03805 -72.36709 14363 ft 277 kts 258°
2026-05-08 20:17 41.03202 -72.39124 13983 ft 274 kts 258°
2026-05-08 20:17 41.02606 -72.41514 13598 ft 271 kts 258°
2026-05-08 20:18 41.02019 -72.43872 13177 ft 268 kts 258°
2026-05-08 20:18 41.01437 -72.46212 12773 ft 266 kts 257°
2026-05-08 20:18 41.00861 -72.48529 12372 ft 264 kts 257°
2026-05-08 20:18 41.00283 -72.50842 11995 ft 264 kts 257°
2026-05-08 20:19 40.99708 -72.53142 11601 ft 263 kts 257°
2026-05-08 20:19 40.99134 -72.55435 11226 ft 262 kts 256°
2026-05-08 20:19 40.98559 -72.57727 10945 ft 261 kts 256°
2026-05-08 20:19 40.97985 -72.60009 10692 ft 261 kts 256°
2026-05-08 20:20 40.97413 -72.62296 10438 ft 261 kts 255°
2026-05-08 20:20 40.96846 -72.64576 10185 ft 260 kts 254°
2026-05-08 20:20 40.96245 -72.66831 9934 ft 259 kts 255°
2026-05-08 20:20 40.95677 -72.69095 9739 ft 259 kts 255°
2026-05-08 20:21 40.95114 -72.71356 9519 ft 258 kts 255°
2026-05-08 20:21 40.94550 -72.73612 9314 ft 258 kts 255°
2026-05-08 20:21 40.93929 -72.75848 9069 ft 259 kts 250°
2026-05-08 20:21 40.93096 -72.77962 8864 ft 260 kts 243°
2026-05-08 20:22 40.92053 -72.79935 8652 ft 263 kts 236°
2026-05-08 20:22 40.90812 -72.81724 8489 ft 266 kts 229°
2026-05-08 20:22 40.89385 -72.83303 8318 ft 269 kts 223°
2026-05-08 20:22 40.88388 -72.84282 8218 ft 271 kts 222°
2026-05-08 20:23 40.86348 -72.86248 8000 ft 271 kts 222°
2026-05-08 20:23 40.85337 -72.87216 7897 ft 271 kts 222°
2026-05-08 20:23 40.83812 -72.88675 7744 ft 270 kts 222°
2026-05-08 20:23 40.82291 -72.90131 7592 ft 270 kts 221°
2026-05-08 20:24 40.80772 -72.91586 7441 ft 269 kts 221°
2026-05-08 20:24 40.79256 -72.93035 7281 ft 268 kts 222°
2026-05-08 20:24 40.77742 -72.94484 6990 ft 268 kts 221°
2026-05-08 20:24 40.76242 -72.95924 6678 ft 266 kts 220°
2026-05-08 20:25 40.74747 -72.97350 6379 ft 264 kts 220°
2026-05-08 20:25 40.73260 -72.98765 6063 ft 263 kts 220°
2026-05-08 20:25 40.71783 -73.00170 5753 ft 262 kts 221°
2026-05-08 20:25 40.70536 -73.01836 5416 ft 251 kts 247°
2026-05-08 20:26 40.69984 -73.03969 5167 ft 243 kts 254°
2026-05-08 20:26 40.69333 -73.06023 4931 ft 241 kts 248°
2026-05-08 20:26 40.68602 -73.07995 4664 ft 237 kts 247°
2026-05-08 20:26 40.67868 -73.09925 4392 ft 234 kts 247°
2026-05-08 20:27 40.67143 -73.11830 4121 ft 230 kts 247°
2026-05-08 20:27 40.66434 -73.13687 3973 ft 223 kts 247°
2026-05-08 20:27 40.65746 -73.15473 3861 ft 214 kts 247°
2026-05-08 20:27 40.65079 -73.17199 3743 ft 210 kts 247°
2026-05-08 20:28 40.64416 -73.18914 3656 ft 209 kts 247°
2026-05-08 20:28 40.63758 -73.20632 3630 ft 210 kts 247°
2026-05-08 20:28 40.63096 -73.22362 3626 ft 211 kts 247°
2026-05-08 20:28 40.62433 -73.24081 3583 ft 210 kts 247°
2026-05-08 20:29 40.61767 -73.25805 3540 ft 210 kts 247°
2026-05-08 20:29 40.61103 -73.27529 3483 ft 210 kts 247°
2026-05-08 20:29 40.60443 -73.29245 3442 ft 210 kts 247°
2026-05-08 20:29 40.59788 -73.30969 3382 ft 210 kts 247°
2026-05-08 20:30 40.59144 -73.32697 3330 ft 211 kts 247°
2026-05-08 20:30 40.58504 -73.34435 3280 ft 211 kts 247°
2026-05-08 20:30 40.57860 -73.36168 3227 ft 211 kts 247°
2026-05-08 20:30 40.57228 -73.37867 3169 ft 200 kts 247°
2026-05-08 20:31 40.56638 -73.39457 3108 ft 188 kts 247°
2026-05-08 20:31 40.56052 -73.41006 3056 ft 190 kts 247°
2026-05-08 20:31 40.55461 -73.42572 3016 ft 191 kts 247°
2026-05-08 20:31 40.54901 -73.44145 3013 ft 189 kts 255°
2026-05-08 20:32 40.54668 -73.45831 3009 ft 187 kts 265°
2026-05-08 20:32 40.54552 -73.47536 3016 ft 188 kts 266°
2026-05-08 20:32 40.54459 -73.49250 3013 ft 187 kts 267°
2026-05-08 20:32 40.54366 -73.50961 3008 ft 187 kts 267°
2026-05-08 20:33 40.54390 -73.52668 3008 ft 188 kts 278°
2026-05-08 20:33 40.54747 -73.54321 3005 ft 189 kts 290°
2026-05-08 20:33 40.55318 -73.55883 3000 ft 189 kts 296°
2026-05-08 20:33 40.55991 -73.57379 3006 ft 189 kts 298°
2026-05-08 20:34 40.56676 -73.58857 2993 ft 189 kts 298°
2026-05-08 20:34 40.57359 -73.60348 2798 ft 190 kts 298°
2026-05-08 20:34 40.58704 -73.63332 2283 ft 190 kts 298°
2026-05-08 20:35 40.59375 -73.64827 2029 ft 190 kts 298°
2026-05-08 20:35 40.60047 -73.66324 1778 ft 189 kts 298°
2026-05-08 20:35 40.60715 -73.67808 1536 ft 185 kts 298°
2026-05-08 20:35 40.61351 -73.69218 1280 ft 173 kts 297°
2026-05-08 20:36 40.61945 -73.70535 1030 ft 162 kts 297°
2026-05-08 20:36 40.62498 -73.71764 811 ft 150 kts 297°
2026-05-08 20:36 40.63008 -73.72898 618 ft 141 kts 298°
2026-05-08 20:36 40.63509 -73.74012 432 ft 141 kts 300°
2026-05-08 20:37 40.64011 -73.75116 268 ft 140 kts 300°
2026-05-08 20:37 40.64501 -73.76203 44 ft 135 kts 300°
2026-05-08 20:37 40.64936 -73.77178 30 ft 98 kts 300°
2026-05-08 20:37 40.65186 -73.77724 28 ft 54 kts 303°
2026-05-08 20:38 40.65331 -73.78040 29 ft 32 kts 300°
2026-05-08 20:38 40.65413 -73.78225 29 ft 16 kts 299°
2026-05-08 20:38 40.65423 -73.78332 30 ft 8 kts 253°
2026-05-08 20:38 40.65403 -73.78371 29 ft 0 kts 208°
2026-05-08 20:40 40.65380 -73.78414 29 ft 15 kts 243°
2026-05-08 20:40 40.65347 -73.78502 29 ft 8 kts 242°
2026-05-08 20:40 40.65326 -73.78551 29 ft 8 kts 241°
2026-05-08 20:41 40.65293 -73.78629 27 ft 12 kts 240°
2026-05-08 20:41 40.65260 -73.78706 29 ft 9 kts 240°
2026-05-08 20:41 40.65217 -73.78748 28 ft 5 kts 175°
2026-05-08 20:41 40.65181 -73.78724 29 ft 6 kts 123°
2026-05-08 20:42 40.65188 -73.78655 29 ft 10 kts 65°
2026-05-08 20:42 40.65227 -73.78556 29 ft 12 kts 61°
2026-05-08 20:42 40.65263 -73.78451 29 ft 6 kts 77°
2026-05-08 20:42 40.65260 -73.78385 29 ft 9 kts 107°
2026-05-08 20:43 40.65228 -73.78296 29 ft 12 kts 120°
2026-05-08 20:43 40.65183 -73.78261 29 ft 4 kts 186°
2026-05-08 20:43 40.65146 -73.78274 29 ft 7 kts 202°
2026-05-08 20:43 40.65125 -73.78291 29 ft 2 kts 216°
2026-05-08 20:44 40.65117 -73.78300 29 ft 1 kts 216°
2026-05-08 20:44 40.65116 -73.78301 29 ft 0 kts 216°